GW3939 Weather Reports


time (UTC)temp
C
wind
direction
speed
KPH
gust
KPH
rain 1hr
cm
rain 24hr
cm
rain mn
cm
humidity
%
barometer
mb
20260504000543 21 236 0.0 8.0 0.00 0.05 0.05 38 1003.2
20260504000028 21 208 1.6 8.0 0.00 0.05 0.05 37 1003.1
20260503235557 21 261 0.0 6.4 0.00 0.05 0.05 38 1003.2
20260503235505 21 252 0.0 6.4 0.00 0.05 0.05 38 1003.2
20260503235039 21 242 0.0 4.8 0.00 0.05 0.05 38 1003.1
20260503234558 21 258 0.0 9.7 0.00 0.05 0.05 39 1003.1
20260503234041 21 231 0.0 9.7 0.00 0.05 0.05 39 1003.0
20260503233600 21 266 3.2 8.0 0.00 0.05 0.05 37 1003.1
20260503233036 21 288 1.6 6.4 0.00 0.05 0.05 38 1003.2
20260503232518 21 314 1.6 12.9 0.00 0.05 0.05 38 1003.2
20260503232053 21 290 0.0 12.9 0.00 0.05 0.05 39 1003.2
20260503231535 21 278 1.6 14.5 0.00 0.05 0.05 39 1003.3
20260503231018 21 237 1.6 12.9 0.00 0.05 0.05 38 1003.3
20260503230552 21 276 3.2 11.3 0.00 0.05 0.05 39 1003.4
20260503230012 21 272 1.6 4.8 0.00 0.05 0.05 38 1003.4
20260503225547 21 273 1.6 6.4 0.00 0.05 0.05 40 1003.5
20260503225029 21 264 0.0 6.4 0.00 0.05 0.05 40 1003.5
20260503224507 21 267 3.2 9.7 0.00 0.05 0.05 39 1003.5
20260503224031 21 207 3.2 9.7 0.00 0.05 0.05 40 1003.5
20260503223512 21 267 1.6 9.7 0.00 0.05 0.05 41 1003.5
20260503223101 21 285 0.0 14.5 0.00 0.05 0.05 40 1003.5
20260503222527 21 268 3.2 14.5 0.00 0.05 0.05 39 1003.5
20260503222005 21 281 3.2 12.9 0.00 0.05 0.05 40 1003.5
20260503221548 21 257 3.2 12.9 0.00 0.05 0.05 41 1003.5
20260503221026 21 229 1.6 16.1 0.00 0.05 0.05 41 1003.5
20260503220558 21 255 4.8 16.1 0.00 0.05 0.05 41 1003.5
20260503220040 21 274 3.2 12.9 0.00 0.05 0.05 42 1003.5
20260503215547 20 255 3.2 12.9 0.00 0.05 0.05 41 1003.5
20260503215027 20 234 1.6 14.5 0.00 0.05 0.05 40 1003.6
20260503214517 20 230 4.8 14.5 0.00 0.05 0.05 41 1003.8
20260503214043 20 278 3.2 12.9 0.00 0.05 0.05 41 1003.6
20260503213525 20 221 3.2 12.9 0.00 0.05 0.05 40 1003.7
20260503213003 20 134 3.2 12.9 0.00 0.05 0.05 42 1003.7
20260503212544 20 231 1.6 14.5 0.00 0.05 0.05 42 1003.7
20260503212028 20 288 4.8 14.5 0.00 0.05 0.05 41 1003.9
20260503211557 20 290 0.0 12.9 0.00 0.05 0.05 42 1003.8
20260503211039 20 260 4.8 12.9 0.00 0.05 0.05 41 1003.9
20260503210557 20 234 3.2 9.7 0.00 0.05 0.05 43 1004.0
20260503210040 20 273 3.2 9.7 0.00 0.05 0.05 42 1003.9
20260503205558 20 237 3.2 19.3 0.00 0.05 0.05 43 1004.1
20260503205036 20 302 3.2 22.5 0.00 0.05 0.05 43 1004.3
20260503204523 20 144 8.0 22.5 0.00 0.05 0.05 43 1004.3
20260503204035 20 203 3.2 14.5 0.00 0.05 0.05 42 1004.3
20260503203516 20 274 3.2 17.7 0.00 0.05 0.05 42 1004.4
20260503203049 19 226 3.2 17.7 0.00 0.05 0.05 45 1004.6
20260503202516 19 282 3.2 12.9 0.00 0.05 0.05 43 1004.8
20260503202049 19 245 4.8 12.9 0.00 0.05 0.05 42 1004.7
20260503201532 19 297 3.2 24.1 0.00 0.05 0.05 43 1004.8
20260503201009 19 253 8.0 24.1 0.00 0.05 0.05 42 1004.9
20260503200547 18 278 6.4 22.5 0.00 0.05 0.05 45 1005.0
20260503200029 18 207 6.4 22.5 0.00 0.05 0.05 43 1005.0
20260503195510 19 229 8.0 20.9 0.00 0.05 0.05 43 1005.0
20260503195047 19 251 3.2 12.9 0.00 0.05 0.05 43 1005.1
20260503194534 19 226 3.2 14.5 0.00 0.05 0.05 46 1005.2
20260503194008 19 241 6.4 14.5 0.00 0.05 0.05 44 1005.4
20260503193542 18 266 1.6 14.5 0.00 0.05 0.05 42 1005.5
20260503193020 18 309 3.2 16.1 0.00 0.05 0.05 45 1005.6
20260503192541 18 128 6.4 16.1 0.00 0.05 0.05 42 1005.5
20260503192023 19 234 3.2 14.5 0.00 0.05 0.05 44 1005.5
20260503191612 18 230 3.2 30.6 0.00 0.05 0.05 45 1005.6
20260503191502 18 240 3.2 30.6 0.00 0.05 0.05 44 1005.6
20260503191046 18 256 6.4 30.6 0.00 0.05 0.05 42 1005.6
20260503190519 18 219 4.8 17.7 0.00 0.05 0.05 45 1005.7
20260503190059 18 283 3.2 19.3 0.00 0.05 0.05 45 1005.7
20260503185533 18 229 6.4 33.8 0.00 0.05 0.05 43 1005.8
20260503185011 17 130 8.0 33.8 0.00 0.05 0.05 44 1005.8
20260503184533 17 151 4.8 19.3 0.00 0.05 0.05 44 1005.9
20260503184016 17 282 4.8 24.1 0.00 0.05 0.05 44 1006.0
20260503183551 17 218 9.7 30.6 0.00 0.05 0.05 44 1006.0
20260503183010 17 229 11.3 30.6 0.00 0.05 0.05 44 1005.9
20260503182543 17 245 4.8 25.7 0.00 0.05 0.05 46 1006.1
20260503182023 17 239 4.8 19.3 0.00 0.05 0.05 46 1006.2
20260503181608 17 267 8.0 19.3 0.00 0.05 0.05 46 1006.2
20260503181504 17 226 6.4 22.5 0.00 0.05 0.05 46 1006.1
20260503181042 17 226 8.0 27.4 0.00 0.05 0.05 46 1006.2
20260503180523 17 224 11.3 33.8 0.00 0.05 0.05 46 1006.3
20260503180057 17 212 8.0 33.8 0.00 0.05 0.05 47 1006.2
20260503175540 16 283 4.8 20.9 0.00 0.05 0.05 50 1006.4
20260503175018 16 273 8.0 24.1 0.00 0.05 0.05 51 1006.5
20260503174601 16 214 6.4 16.1 0.00 0.05 0.05 50 1006.5
20260503174035 16 243 6.4 24.1 0.00 0.05 0.05 50 1006.8
20260503173517 16 271 11.3 30.6 0.00 0.05 0.05 50 1006.9
20260503173054 16 257 6.4 29.0 0.00 0.05 0.05 50 1006.9
20260503172536 16 275 8.0 29.0 0.00 0.05 0.05 50 1006.9
20260503172003 16 124 6.4 25.7 0.00 0.05 0.05 49 1007.1
20260503171543 15 278 4.8 25.7 0.00 0.05 0.05 50 1007.1
20260503171027 15 191 11.3 29.0 0.00 0.05 0.05 49 1007.3
20260503170600 15 299 6.4 29.0 0.00 0.05 0.05 50 1007.3
20260503150516 12 187 8.0 20.9 0.03 0.05 0.05 69 1008.3
20260503131023 10 217 4.8 14.5 0.00 0.00 0.00 64 1010.6
20260503130550 10 240 4.8 11.3 0.00 0.00 0.00 64 1010.7
20260503110542 8 175 1.6 9.7 0.00 0.00 0.00 56 1010.8
20260503081521 8 227 1.6 12.9 0.00 0.00 0.00 53 1012.2
20260503081056 8 290 4.8 12.9 0.00 0.00 0.00 53 1012.1
20260503080538 8 220 1.6 8.0 0.00 0.00 0.00 54 1012.2
20260503072524 8 217 4.8 11.3 0.00 0.00 0.00 53 1012.4
20260503072046 8 238 1.6 9.7 0.00 0.00 0.00 53 1012.4
20260503071522 8 238 1.6 12.9 0.00 0.00 0.00 53 1012.4
20260503071058 8 342 3.2 12.9 0.00 0.00 0.00 54 1012.4
20260503070540 7 205 1.6 9.7 0.00 0.00 0.00 54 1012.5
20260503055013 8 240 0.0 8.0 0.00 0.00 0.00 51 1013.2
20260503054551 8 240 1.6 8.0 0.00 0.00 0.00 51 1013.2
20260503054034 8 266 1.6 8.0 0.00 0.00 0.00 50 1013.1
20260503053510 8 217 1.6 8.0 0.00 0.00 0.00 50 1013.2
20260503053047 8 211 1.6 8.0 0.00 0.00 0.00 49 1013.2
20260503052524 8 236 0.0 8.0 0.00 0.00 0.00 49 1013.2
20260503052046 8 219 1.6 6.4 0.00 0.00 0.00 48 1013.3
20260503051524 8 225 1.6 6.4 0.00 0.00 0.00 49 1013.4
20260503051100 8 241 0.0 6.4 0.00 0.00 0.00 49 1013.5
20260503051002 8 226 0.0 8.0 0.00 0.00 0.00 49 1013.5
20260503050540 8 222 1.6 8.0 0.00 0.00 0.00 48 1013.5
20260503050016 8 234 1.6 9.7 0.00 0.00 0.00 48 1013.5
20260503045549 8 214 3.2 8.0 0.00 0.00 0.00 48 1013.5
20260503045027 8 215 0.0 9.7 0.00 0.00 0.00 48 1013.5
20260503044506 8 222 3.2 9.7 0.00 0.00 0.00 47 1013.5
20260503044032 9 236 0.0 8.0 0.00 0.00 0.00 47 1013.5
20260503043506 9 252 0.0 6.4 0.00 0.00 0.00 47 1013.5
20260503043050 9 217 1.6 8.0 0.00 0.00 0.00 47 1013.5
20260503042528 9 229 1.6 8.0 0.00 0.00 0.00 47 1013.6
20260503042100 9 251 0.0 8.0 0.00 0.00 0.00 46 1013.6
20260503042008 9 221 0.0 8.0 0.00 0.00 0.00 46 1013.6
20260503041602 9 222 0.0 8.0 0.00 0.00 0.00 46 1013.6
20260503041023 9 236 0.0 8.0 0.00 0.00 0.00 47 1013.7
20260503040559 9 230 1.6 9.7 0.00 0.00 0.00 46 1013.7
20260503040504 9 176 1.6 9.7 0.00 0.00 0.00 46 1013.7
20260503040049 9 150 1.6 11.3 0.00 0.00 0.00 46 1013.8
20260503035516 9 239 3.2 11.3 0.00 0.00 0.00 46 1013.9
20260503035040 9 235 0.0 9.7 0.00 0.00 0.00 46 1013.9
20260503034516 9 167 1.6 9.7 0.00 0.00 0.00 45 1014.1
20260503034039 9 230 1.6 8.0 0.00 0.00 0.00 45 1014.0
20260503033515 9 231 1.6 8.0 0.00 0.00 0.00 45 1014.0
20260503033106 9 233 0.0 3.2 0.00 0.00 0.00 46 1014.0
20260503032535 9 213 0.0 4.8 0.00 0.00 0.00 45 1014.1
20260503032025 10 246 0.0 6.4 0.00 0.00 0.00 45 1014.1
20260503031600 10 205 0.0 4.8 0.00 0.00 0.00 45 1014.2
20260503031036 10 221 0.0 4.8 0.00 0.00 0.00 44 1014.2
20260503030517 10 256 0.0 4.8 0.00 0.00 0.00 44 1014.2
20260503030100 10 174 0.0 6.4 0.00 0.00 0.00 44 1014.3
20260503025510 10 222 1.6 6.4 0.00 0.00 0.00 44 1014.3
20260503025045 10 215 0.0 4.8 0.00 0.00 0.00 45 1014.4
20260503024536 10 195 0.0 4.8 0.00 0.00 0.00 44 1014.3
20260503024010 10 219 0.0 3.2 0.00 0.00 0.00 44 1014.4
20260503023545 10 210 0.0 4.8 0.00 0.00 0.00 44 1014.4
20260503023023 10 236 0.0 4.8 0.00 0.00 0.00 44 1014.3
20260503022545 10 243 0.0 4.8 0.00 0.00 0.00 44 1014.3
20260503022009 10 219 0.0 4.8 0.00 0.00 0.00 44 1014.4
20260503021550 10 186 0.0 4.8 0.00 0.00 0.00 44 1014.3
20260503021010 10 238 0.0 3.2 0.00 0.00 0.00 44 1014.3
20260503020540 10 217 0.0 3.2 0.00 0.00 0.00 44 1014.3
20260503020018 10 228 0.0 1.6 0.00 0.00 0.00 43 1014.3
20260503015542 10 233 0.0 1.6 0.00 0.00 0.00 43 1014.3
20260503015014 10 233 0.0 1.6 0.00 0.00 0.00 42 1014.3
20260503014552 10 221 0.0 1.6 0.00 0.00 0.00 43 1014.3
20260503014009 10 224 0.0 4.8 0.00 0.00 0.00 42 1014.2
20260503013533 10 224 0.0 4.8 0.00 0.00 0.00 42 1014.2
20260503013016 11 243 0.0 3.2 0.00 0.00 0.00 42 1014.1
20260503012550 11 231 0.0 3.2 0.00 0.00 0.00 41 1014.2
20260503012028 11 226 0.0 1.6 0.00 0.00 0.00 41 1014.2
20260503011513 11 217 0.0 1.6 0.00 0.00 0.00 40 1014.2
20260503011047 11 167 0.0 0.0 0.00 0.00 0.00 40 1014.1
20260503010512 11 162 0.0 1.6 0.00 0.00 0.00 40 1014.2
20260503010044 11 162 0.0 1.6 0.00 0.00 0.00 40 1014.1
20260503005526 12 230 0.0 1.6 0.00 0.00 0.00 39 1014.1
20260503005055 12 229 0.0 1.6 0.00 0.00 0.00 39 1014.0
20260503004529 12 229 0.0 1.6 0.00 0.00 0.00 38 1014.1
20260503004009 12 214 0.0 3.2 0.00 0.00 0.00 38 1014.1
20260503003532 12 273 0.0 3.2 0.00 0.00 0.00 39 1014.2
20260503003050 12 224 0.0 3.2 0.00 0.00 0.00 38 1014.2
20260503002511 13 284 0.0 4.8 0.00 0.00 0.00 37 1014.2
20260503002049 13 260 1.6 4.8 0.00 0.00 0.00 36 1014.2
20260503001508 13 272 0.0 4.8 0.00 0.00 0.00 36 1014.4
20260503001029 13 286 0.0 4.8 0.00 0.00 0.00 36 1014.4